星链-35599(STARLINK-35599)

导读

STARLINK-35599是美国太空探索技术公司SpaceX星链星座的一员,于2025年10月19日发射升空。星链项目旨在构建全球卫星互联网星座,为全球偏远地区、海洋空域等区域提供高速低延迟的宽带网络服务,该卫星入轨后将承担星座组网与通信服务任务,进一步完善星链星座覆盖能力。

Basic Information
目录编号:
66102
目录名称:
STARLINK-35599
国际标识:
2025-236S
轨道中心:
EARTH
卫星名称:
星链-35599
卫星全名:
星链-35599(STARLINK-35599)
卫星状态:
在轨 (已飞行327 天)
发射日期:
2025-10-19 UTC
国别 :
美国 (US)
星等 :
--
This satellite is enrolled in the Space Conjunction Data Service (SCDS) and the current flight risk assessment level is: No High Risk
Orbit Information
数据来源 国际轨道数据 AOE轨道数据
星历时间 2026-09-11T12:47:14+0800
8小时前
查看轨道信息
2026-09-06T06:00:00+0800
5天前
查看轨道信息
半长轴 6840.878km 6840.846km
偏心率 0.0001194 0.0001153
轨道倾角 53.159° 53.156°
近地点辐角 94.826° 68.032°
升交点赤经 318.891° 343.588°
平近点角 265.288° 254.723°
近地点 461.924km 461.92km
远地点 463.558km 463.498km
周期 93.849分钟 93.848分钟
每日圈数 15.343874 15.343981
Detailed Information
固有亮度:
5
最大亮度:
2.5
卫星平台:
Starlink V1.0
覆盖范围:
全球
运营商:
太空探索技术公司
运营商所在国:
美国
制造商(研发单位):
太空探索技术公司
制造商所在国:
美国
使用方式:
暂无
Satellite Introduction
Starlink 计划是 SpaceX 推出的全球卫星互联网项目,通过发射低轨道卫星,为全球尤其是偏远地区提供高速、低延迟的互联网服务。自 2019 年起,Starlink 已部署数千颗卫星,旨在缩小全球数字鸿沟,推动互联网普及。该项目还为军事、航空等行业提供通信支持,带来广泛经济效益。
2D Orbit Map
3D Orbit Map
Orbit Altitude Analysis Chart
Orbit Inclination Analysis Chart
Orbit Comprehensive Analysis Chart
View Comprehensive Chart
Miss Distance Evolution Trend with All Objects
Collision Probability Evolution Trend with All Objects